Time,TemperatureF,DewpointF,PressureIn,WindDirection,WindDirectionDegrees,WindSpeedMPH,WindSpeedGustMPH,Humidity,HourlyPrecipIn,Conditions,Clouds,dailyrainin,SoftwareType,DateUTC
2013-09-08 00:04:00,69.9,67.0,29.79,WNW,290,0.0,0.0,89,0.00,,,0.00,weatherlink.com 1.10,2013-09-08 04:04:00,
2013-09-08 00:19:00,69.8,67.0,29.79,WNW,290,0.0,0.0,90,0.00,,,0.00,weatherlink.com 1.10,2013-09-08 04:19:00,
2013-09-08 00:34:00,69.5,66.0,29.79,WNW,290,0.0,1.0,89,0.00,,,0.00,weatherlink.com 1.10,2013-09-08 04:34:00,
2013-09-08 00:49:00,68.8,66.0,29.79,WNW,290,0.0,1.0,89,0.00,,,0.00,weatherlink.com 1.10,2013-09-08 04:49:00,
2013-09-08 01:04:00,67.9,65.0,29.80,WNW,290,0.0,0.0,90,0.00,,,0.00,weatherlink.com 1.10,2013-09-08 05:04:00,
2013-09-08 01:19:00,67.1,64.0,29.80,WNW,290,0.0,0.0,90,0.00,,,0.00,weatherlink.com 1.10,2013-09-08 05:19:00,
2013-09-08 01:34:00,65.9,63.0,29.80,WNW,290,0.0,0.0,91,0.00,,,0.00,weatherlink.com 1.10,2013-09-08 05:34:00,
2013-09-08 01:49:00,65.2,63.0,29.79,WNW,290,0.0,0.0,92,0.00,,,0.00,weatherlink.com 1.10,2013-09-08 05:49:00,
2013-09-08 02:04:00,64.8,63.0,29.80,WNW,290,0.0,0.0,93,0.00,,,0.00,weatherlink.com 1.10,2013-09-08 06:04:00,
2013-09-08 02:19:00,64.5,63.0,29.80,WNW,290,0.0,0.0,94,0.00,,,0.00,weatherlink.com 1.10,2013-09-08 06:19:00,
2013-09-08 02:34:00,64.0,62.0,29.79,WNW,290,0.0,0.0,94,0.00,,,0.00,weatherlink.com 1.10,2013-09-08 06:34:00,
2013-09-08 02:49:00,63.8,62.0,29.79,WNW,290,0.0,0.0,95,0.00,,,0.00,weatherlink.com 1.10,2013-09-08 06:49:00,
2013-09-08 03:04:00,63.5,62.0,29.80,WNW,290,0.0,0.0,95,0.00,,,0.00,weatherlink.com 1.10,2013-09-08 07:04:00,
2013-09-08 03:19:00,63.2,62.0,29.80,WNW,290,0.0,0.0,95,0.00,,,0.00,weatherlink.com 1.10,2013-09-08 07:19:00,
2013-09-08 03:34:00,62.9,62.0,29.80,WNW,290,0.0,0.0,95,0.00,,,0.00,weatherlink.com 1.10,2013-09-08 07:34:00,
2013-09-08 03:49:00,62.7,62.0,29.80,WNW,290,0.0,1.0,96,0.00,,,0.00,weatherlink.com 1.10,2013-09-08 07:49:00,
2013-09-08 04:04:00,62.5,61.0,29.80,WNW,290,0.0,0.0,96,0.00,,,0.00,weatherlink.com 1.10,2013-09-08 08:04:00,
2013-09-08 04:19:00,63.4,63.0,29.80,WNW,290,0.0,1.0,98,0.00,,,0.00,weatherlink.com 1.10,2013-09-08 08:19:00,
2013-09-08 04:34:00,64.7,64.0,29.80,WNW,290,0.0,2.0,98,0.00,,,0.00,weatherlink.com 1.10,2013-09-08 08:34:00,
2013-09-08 04:49:00,65.6,65.0,29.80,NE,55,0.0,3.0,97,0.00,,,0.00,weatherlink.com 1.10,2013-09-08 08:49:00,
2013-09-08 05:04:00,65.8,65.0,29.80,NNE,17,1.0,3.0,96,0.00,,,0.00,weatherlink.com 1.10,2013-09-08 09:04:00,
2013-09-08 05:19:00,65.9,65.0,29.81,NNE,28,0.0,3.0,95,0.00,,,0.00,weatherlink.com 1.10,2013-09-08 09:19:00,
2013-09-08 05:34:00,66.0,65.0,29.81,NNE,22,1.0,3.0,95,0.00,,,0.00,weatherlink.com 1.10,2013-09-08 09:34:00,
2013-09-08 05:49:00,65.9,65.0,29.82,NE,49,3.0,4.0,95,0.00,,,0.00,weatherlink.com 1.10,2013-09-08 09:49:00,
2013-09-08 06:04:00,66.0,65.0,29.82,NE,52,1.0,3.0,95,0.00,,,0.00,weatherlink.com 1.10,2013-09-08 10:04:00,
2013-09-08 06:20:00,65.7,64.0,29.82,NE,52,0.0,1.0,95,0.00,,,0.00,weatherlink.com 1.10,2013-09-08 10:20:00,
2013-09-08 06:35:00,65.7,65.0,29.82,NE,54,1.0,6.0,96,0.00,,,0.00,weatherlink.com 1.10,2013-09-08 10:35:00,
2013-09-08 06:50:00,66.1,65.0,29.82,NNE,32,3.0,11.0,96,0.00,,,0.00,weatherlink.com 1.10,2013-09-08 10:50:00,
2013-09-08 07:05:00,66.5,65.0,29.83,ENE,58,2.0,9.0,96,0.00,,,0.00,weatherlink.com 1.10,2013-09-08 11:05:00,
2013-09-08 07:20:00,66.5,65.0,29.84,ENE,57,5.0,11.0,96,0.00,,,0.00,weatherlink.com 1.10,2013-09-08 11:20:00,
2013-09-08 07:35:00,66.5,65.0,29.84,ENE,60,4.0,8.0,95,0.00,,,0.00,weatherlink.com 1.10,2013-09-08 11:35:00,
2013-09-08 07:50:00,66.5,65.0,29.85,NE,52,3.0,6.0,95,0.00,,,0.00,weatherlink.com 1.10,2013-09-08 11:50:00,
2013-09-08 08:05:00,66.5,65.0,29.86,NE,48,5.0,8.0,95,0.00,,,0.00,weatherlink.com 1.10,2013-09-08 12:05:00,
2013-09-08 08:20:00,66.6,65.0,29.85,NE,34,3.0,9.0,95,0.00,,,0.00,weatherlink.com 1.10,2013-09-08 12:20:00,
2013-09-08 08:35:00,66.8,65.0,29.85,NE,49,10.0,12.0,94,0.00,,,0.00,weatherlink.com 1.10,2013-09-08 12:35:00,
2013-09-08 08:50:00,66.8,65.0,29.86,ENE,61,3.0,14.0,93,0.00,,,0.00,weatherlink.com 1.10,2013-09-08 12:50:00,
2013-09-08 09:05:00,67.4,65.0,29.86,ENE,62,2.0,8.0,93,0.00,,,0.00,weatherlink.com 1.10,2013-09-08 13:05:00,
2013-09-08 09:20:00,68.3,65.0,29.86,ENE,60,4.0,13.0,89,0.00,,,0.00,weatherlink.com 1.10,2013-09-08 13:20:00,
2013-09-08 09:35:00,68.6,65.0,29.86,ENE,77,5.0,9.0,87,0.00,,,0.00,weatherlink.com 1.10,2013-09-08 13:35:00,
2013-09-08 09:50:00,68.8,65.0,29.86,ESE,113,4.0,12.0,87,0.00,,,0.00,weatherlink.com 1.10,2013-09-08 13:50:00,
2013-09-08 10:05:00,69.5,65.0,29.87,NE,34,8.0,11.0,85,0.00,,,0.00,weatherlink.com 1.10,2013-09-08 14:05:00,
2013-09-08 10:20:00,71.0,65.0,29.87,East,101,3.0,11.0,82,0.00,,,0.00,weatherlink.com 1.10,2013-09-08 14:20:00,
2013-09-08 10:35:00,71.3,65.0,29.88,NE,44,1.0,9.0,81,0.00,,,0.00,weatherlink.com 1.10,2013-09-08 14:35:00,
2013-09-08 10:50:00,70.1,64.0,29.88,NE,51,3.0,11.0,82,0.00,,,0.00,weatherlink.com 1.10,2013-09-08 14:50:00,
2013-09-08 11:05:00,69.8,64.0,29.88,ESE,111,5.0,11.0,82,0.00,,,0.00,weatherlink.com 1.10,2013-09-08 15:05:00,
2013-09-08 11:20:00,69.5,63.0,29.88,ENE,65,7.0,12.0,81,0.00,,,0.00,weatherlink.com 1.10,2013-09-08 15:20:00,
2013-09-08 11:35:00,69.5,63.0,29.89,NE,55,7.0,12.0,81,0.00,,,0.00,weatherlink.com 1.10,2013-09-08 15:35:00,
2013-09-08 11:50:00,69.3,63.0,29.89,ENE,57,10.0,12.0,81,0.00,,,0.00,weatherlink.com 1.10,2013-09-08 15:50:00,
2013-09-08 12:05:00,69.4,63.0,29.89,NE,34,4.0,10.0,81,0.00,,,0.00,weatherlink.com 1.10,2013-09-08 16:05:00,
2013-09-08 12:20:00,70.0,63.0,29.89,SE,141,7.0,10.0,79,0.00,,,0.00,weatherlink.com 1.10,2013-09-08 16:20:00,
2013-09-08 12:35:00,71.0,64.0,29.89,NE,51,3.0,10.0,79,0.00,,,0.00,weatherlink.com 1.10,2013-09-08 16:35:00,
2013-09-08 12:50:00,71.4,64.0,29.89,ENE,77,7.0,14.0,76,0.00,,,0.00,weatherlink.com 1.10,2013-09-08 16:50:00,
2013-09-08 13:05:00,71.3,63.0,29.89,ENE,67,7.0,13.0,76,0.00,,,0.00,weatherlink.com 1.10,2013-09-08 17:05:00,
2013-09-08 13:20:00,72.2,64.0,29.89,ENE,63,4.0,14.0,74,0.00,,,0.00,weatherlink.com 1.10,2013-09-08 17:20:00,
2013-09-08 13:35:00,72.9,63.0,29.89,NE,51,4.0,11.0,72,0.00,,,0.00,weatherlink.com 1.10,2013-09-08 17:35:00,
2013-09-08 13:50:00,73.1,64.0,29.89,SE,127,6.0,15.0,72,0.00,,,0.00,weatherlink.com 1.10,2013-09-08 17:50:00,
2013-09-08 14:05:00,75.3,64.0,29.89,ENE,74,8.0,14.0,68,0.00,,,0.00,weatherlink.com 1.10,2013-09-08 18:05:00,
2013-09-08 14:20:00,74.6,63.0,29.89,East,82,3.0,11.0,68,0.00,,,0.00,weatherlink.com 1.10,2013-09-08 18:20:00,
2013-09-08 14:35:00,74.5,64.0,29.89,ENE,63,8.0,10.0,69,0.00,,,0.00,weatherlink.com 1.10,2013-09-08 18:35:00,
2013-09-08 14:50:00,75.2,63.0,29.88,ENE,78,7.0,10.0,66,0.00,,,0.00,weatherlink.com 1.10,2013-09-08 18:50:00,
2013-09-08 15:05:00,75.4,64.0,29.88,SE,130,1.0,8.0,68,0.00,,,0.00,weatherlink.com 1.10,2013-09-08 19:05:00,
2013-09-08 15:20:00,74.9,63.0,29.88,ESE,105,4.0,10.0,67,0.00,,,0.00,weatherlink.com 1.10,2013-09-08 19:20:00,
2013-09-08 15:35:00,74.7,63.0,29.87,ESE,103,2.0,9.0,67,0.00,,,0.00,weatherlink.com 1.10,2013-09-08 19:35:00,
2013-09-08 15:50:00,75.1,63.0,29.87,SE,125,2.0,7.0,67,0.00,,,0.00,weatherlink.com 1.10,2013-09-08 19:50:00,
2013-09-08 16:05:00,75.5,64.0,29.86,SE,146,5.0,11.0,67,0.00,,,0.00,weatherlink.com 1.10,2013-09-08 20:05:00,
2013-09-08 16:20:00,76.1,64.0,29.86,ENE,78,5.0,11.0,66,0.00,,,0.00,weatherlink.com 1.10,2013-09-08 20:20:00,
2013-09-08 16:35:00,75.6,64.0,29.86,South,182,3.0,9.0,67,0.00,,,0.00,weatherlink.com 1.10,2013-09-08 20:35:00,
2013-09-08 16:50:00,76.1,63.0,29.85,ESE,104,1.0,7.0,65,0.00,,,0.00,weatherlink.com 1.10,2013-09-08 20:50:00,
2013-09-08 17:05:00,77.2,63.0,29.85,SE,144,6.0,11.0,62,0.00,,,0.00,weatherlink.com 1.10,2013-09-08 21:05:00,
2013-09-08 17:20:00,76.8,63.0,29.85,East,81,5.0,8.0,63,0.00,,,0.00,weatherlink.com 1.10,2013-09-08 21:20:00,
2013-09-08 17:35:00,76.8,64.0,29.85,SSE,161,2.0,9.0,65,0.00,,,0.00,weatherlink.com 1.10,2013-09-08 21:35:00,
2013-09-08 17:50:00,76.8,63.0,29.85,East,100,2.0,9.0,62,0.00,,,0.00,weatherlink.com 1.10,2013-09-08 21:50:00,
2013-09-08 18:05:00,76.7,64.0,29.85,SSE,162,3.0,6.0,64,0.00,,,0.00,weatherlink.com 1.10,2013-09-08 22:05:00,
2013-09-08 18:20:00,76.8,63.0,29.85,SE,134,2.0,5.0,63,0.00,,,0.00,weatherlink.com 1.10,2013-09-08 22:20:00,
2013-09-08 18:35:00,76.6,64.0,29.84,ESE,122,4.0,5.0,66,0.00,,,0.00,weatherlink.com 1.10,2013-09-08 22:35:00,
2013-09-08 18:50:00,75.9,64.0,29.84,SE,144,3.0,7.0,66,0.00,,,0.00,weatherlink.com 1.10,2013-09-08 22:50:00,
2013-09-08 19:05:00,75.4,64.0,29.84,SSE,152,4.0,6.0,67,0.00,,,0.00,weatherlink.com 1.10,2013-09-08 23:05:00,
2013-09-08 19:20:00,74.5,63.0,29.84,SE,146,2.0,5.0,68,0.00,,,0.00,weatherlink.com 1.10,2013-09-08 23:20:00,
2013-09-08 19:35:00,73.7,64.0,29.84,ESE,118,3.0,4.0,71,0.00,,,0.00,weatherlink.com 1.10,2013-09-08 23:35:00,
2013-09-08 19:51:00,72.8,64.0,29.84,SE,138,1.0,3.0,74,0.00,,,0.00,weatherlink.com 1.10,2013-09-08 23:51:00,
2013-09-08 20:06:00,71.7,63.0,29.84,SE,138,1.0,2.0,75,0.00,,,0.00,weatherlink.com 1.10,2013-09-09 00:06:00,
2013-09-08 20:21:00,71.0,63.0,29.84,SE,130,1.0,3.0,76,0.00,,,0.00,weatherlink.com 1.10,2013-09-09 00:21:00,
2013-09-08 20:36:00,70.3,63.0,29.84,SE,130,0.0,1.0,78,0.00,,,0.00,weatherlink.com 1.10,2013-09-09 00:36:00,
2013-09-08 20:51:00,68.8,63.0,29.85,SE,130,0.0,2.0,81,0.00,,,0.00,weatherlink.com 1.10,2013-09-09 00:51:00,
2013-09-08 21:06:00,68.5,63.0,29.85,SE,130,0.0,2.0,83,0.00,,,0.00,weatherlink.com 1.10,2013-09-09 01:06:00,
2013-09-08 21:21:00,68.8,63.0,29.85,SE,138,1.0,4.0,82,0.00,,,0.00,weatherlink.com 1.10,2013-09-09 01:21:00,
2013-09-08 21:36:00,68.9,63.0,29.85,SE,129,4.0,4.0,82,0.00,,,0.00,weatherlink.com 1.10,2013-09-09 01:36:00,
2013-09-08 21:51:00,68.6,63.0,29.85,ESE,111,2.0,6.0,83,0.00,,,0.00,weatherlink.com 1.10,2013-09-09 01:51:00,
2013-09-08 22:06:00,68.1,63.0,29.84,ESE,108,2.0,5.0,83,0.00,,,0.00,weatherlink.com 1.10,2013-09-09 02:06:00,
2013-09-08 22:21:00,67.9,63.0,29.85,ESE,117,5.0,7.0,83,0.00,,,0.00,weatherlink.com 1.10,2013-09-09 02:21:00,
2013-09-08 22:36:00,67.5,63.0,29.84,SE,137,3.0,9.0,84,0.00,,,0.00,weatherlink.com 1.10,2013-09-09 02:36:00,
2013-09-08 22:51:00,67.1,62.0,29.85,SE,143,3.0,7.0,84,0.00,,,0.00,weatherlink.com 1.10,2013-09-09 02:51:00,
2013-09-08 23:06:00,66.8,62.0,29.84,ESE,111,3.0,9.0,85,0.00,,,0.00,weatherlink.com 1.10,2013-09-09 03:06:00,
2013-09-08 23:21:00,66.4,62.0,29.85,ESE,104,3.0,9.0,85,0.00,,,0.00,weatherlink.com 1.10,2013-09-09 03:21:00,
2013-09-08 23:36:00,66.0,61.0,29.86,SE,142,3.0,7.0,85,0.00,,,0.00,weatherlink.com 1.10,2013-09-09 03:36:00,
2013-09-08 23:51:00,65.7,62.0,29.86,SE,132,3.0,7.0,86,0.00,,,0.00,weatherlink.com 1.10,2013-09-09 03:51:00,